Regional Weather Roundup
Issued by NWS New Orleans/Baton Rouge, LA

Home | Current Version | Previous Version | Text Only | Print | Product List | Glossary On
Versions: 1 2 3 4 5 6 7 8 9 10 11 12 13 14 15 16 17 18 19 20 21 22 23 24 25 26 27 28 29 30 31 32 33 34 35 36 37 38 39 40 41 42 43 44 45 46 47 48 49 50
609
ASUS44 KLIX 181608
RWRLIX
NEW ORLEANS REGIONAL WEATHER ROUNDUP
NATIONAL WEATHER SERVICE NEW ORLEANS LA
1100 AM CDT SAT APR 18 2015

NOTE: "FAIR" INDICATES FEW OR NO CLOUDS BELOW 12,000 FEET WITH NO
      SIGNIFICANT WEATHER AND/OR OBSTRUCTIONS TO VISIBILITY.
      SKY/WX - SKY CONDITION AND SIGNIFICANT WEATHER.
      TMP - AIR TEMPERATURE.     DP    - DEWPOINT TEMPERATURE.
      RH  - RELATIVE HUMIDITY.   PRES  - PRESSURE.
      HI  - HEAT INDEX.          WCI   - WIND CHILL INDEX.

*  THESE STATIONS ARE NOT NWS OR FAA STATIONS AND ARE NOT UNDER
   NWS QUALITY CONTROL.

LAZ038-040-048-061>063-065>067-069-181700-
SOUTHEAST LOUISIANA

CITY           SKY/WX    TMP DP  RH WIND       PRES   REMARKS
N.O. AUDUBON     N/A     70  70 100 MISG        N/A
N.O. INTL ARPT CLOUDY    72  67  84 SE8       29.92F
N.O. LAKEFRONT CLOUDY    74  69  85 SE8       29.93F
SLIDELL        LGT RAIN  70  70 100 SE5       29.93F
BATON ROUGE    CLOUDY    73  68  84 SE9G18    29.89S
BOOTHVILLE     RAIN      69  69 100 NW8       29.99R FOG
BELLE CHASSE   LGT RAIN  70  67  90 E7        29.92F
BOGALUSA*      LGT RAIN  72  68  88 S10       29.95F
GALLIANO*      CLOUDY    67  66  97 CALM      29.93F
NEW ROADS*     PTSUNNY   73  69  87 E12       29.89F
GONZALES*        N/A     73  72  97 E13       29.89F
HAMMOND*       CLOUDY    73  68  83 S9        29.93S
HOUMA*         PTSUNNY   72  68  88 E14       29.91F
PORT FOURCHON* PTSUNNY   70  68  94 E10       30.00F

$$

MSZ070-080>082-181700-
SOUTHERN MISSISSIPPI

CITY           SKY/WX    TMP DP  RH WIND       PRES   REMARKS
MCCOMB         CLOUDY    70  69  97 SE7       29.90F
GULFPORT       LGT RAIN  71  69  93 SE8       29.97F
BILOXI         LGT RAIN  71  71 100 SE6       29.97F
PASCAGOULA     LGT RAIN  70  69  97 CALM      29.99F FOG
STENNIS ARPT*  LGT RAIN  70  66  88 MISG      29.96F

$$

COASTAL OBSERVATIONS
LAKE AND NEARSHORE STATIONS

STATION/POSITION TIME  TEMP    WIND        PRES    WAVE
                       AIR SEA DIR/SP/G            HT/PER
                 (UTC) (F)     (DEG/KT/KT) (MB)    (FT/S)
PASCAGOULA       1500   71      60/  3/  4 1015.1
WAVELAND YACHT   1500   70 73  190/  1/  2 1015.9
GRAND ISLE       1500   71 76  350/ 15/ 20 1014.8
SOUTHWEST PASS   1500   69 63   30/ 11/ 13 1014.5
NEW CANAL        1500   70     180/  2/  3 1015.7
SHELL BEACH      1500   71 75  290/  4/  6 1015.0

OFFSHORE STATIONS

STATION/POSITION TIME  TEMP    WIND        PRES    WAVE
                       AIR SEA DIR/SP/G            HT/PER
                 (UTC) (F)     (DEG/KT/KT) (MB)    (FT/S)
64 S DAUPHIN ISL 1550   72 75  110/  8/ 10 1015.3    3/ 5

$$




USA.gov is the U.S. government's official web portal to all federal, state and local government web resources and services.